Location: Yellowknife
(62.4500°N, 114.3500°W)
Time: 05:46:41
(UTC-06:00)

Amateur Radio Satellites - All Passes

Search period start: 28 May 2016 05:16
Search period end: 29 May 2016 05:16
Location: Yellowknife, 62.4500°N, 114.3500°W

Satellite Date Start Highest point End Downlink Frequencies (MHz)
Time Altitude Azimuth
Cosmos 2491 28 May 05:18:31 05:27:16 72° 98° (E) 05:36:03 435.465 / 435.565
KKS-1 28 May 05:21:26 05:25:12 26° 269° (W) 05:28:58 437.445
STRAND 1 28 May 05:23:14 05:27:09 23° 41° (NE) 05:31:06 437.568
CUBESAT XI-V 28 May 05:28:45 05:33:27 74° 68° (ENE) 05:38:12 437.345
Gurwin Techsat 1B 28 May 05:30:35 05:35:40 46° 303° (WNW) 05:40:44 435.225
Cosmos 2499 28 May 05:36:54 05:42:26 19° 8° (N) 05:48:12 435.465 / 435.565
MOZHAYETS 4 28 May 05:40:41 05:44:29 25° 270° (W) 05:48:19
ITAMSAT 1 28 May 05:46:19 05:51:30 64° 297° (WNW) 05:56:40 435.822/435.867
STARS 28 May 05:56:01 05:59:32 23° 270° (W) 06:03:03 437.465
AIST 1 28 May 05:56:56 05:57:49 10° 33° (NNE) 05:58:44
GONETS M04 28 May 06:05:37 06:12:26 24° 23° (NNE) 06:19:12
YUBILEINY 28 May 06:07:41 06:15:04 32° 284° (WNW) 06:22:29 435.215
AO-7 28 May 06:18:37 06:27:03 79° 113° (ESE) 06:35:27 29.400- 29.500
JAS-2 28 May 06:26:33 06:32:35 25° 334° (NNW) 06:38:22 435.910
HORYU 2 28 May 06:26:54 06:31:12 46° 100° (E) 06:35:30 437.375
SO-50 28 May 06:28:35 06:33:28 71° 9° (N) 06:38:14 436.795
NOAA 15 28 May 06:32:40 06:36:36 20° 85° (E) 06:40:29 137.62
Cubesat XI-IV 28 May 06:39:36 06:43:12 18° 82° (E) 06:46:48 437.490
NOAA 18 28 May 06:42:26 06:46:30 21° 85° (E) 06:50:32 137.9125
Oscar 19 28 May 06:43:50 06:46:56 16° 329° (NNW) 06:50:00 437.125/150
Cosmos 2504 28 May 06:46:50 06:54:29 46° 273° (W) 07:02:34 435.465 / 435.565
PRISM 28 May 06:53:02 06:56:09 21° 46° (NE) 06:59:17 437.425
AO-85 28 May 06:54:50 06:58:43 20° 119° (ESE) 07:02:29 145.980
BRITE-PL 28 May 06:57:03 07:01:32 26° 86° (E) 07:05:44 437.365/2234.400
STRAND 1 28 May 07:00:35 07:05:38 65° 64° (ENE) 07:10:45 437.568
CUBESAT XI-V 28 May 07:07:17 07:11:19 27° 270° (W) 07:15:23 437.345
Gurwin Techsat 1B 28 May 07:11:03 07:14:37 19° 326° (NW) 07:18:12 435.225
Cosmos 2491 28 May 07:16:15 07:24:46 49° 304° (NW) 07:33:17 435.465 / 435.565
LilacSat-2 28 May 07:16:38 07:19:43 23° 91° (E) 07:22:45 437.200
GOMX 1 28 May 07:19:05 07:22:44 21° 84° (E) 07:26:13 467.674
CUTE-I 28 May 07:25:13 07:30:01 32° 93° (E) 07:34:50 437.470
ITAMSAT 1 28 May 07:26:15 07:30:15 23° 320° (NW) 07:34:17 435.822/435.867
Cosmos 2499 28 May 07:31:49 07:38:52 30° 38° (NE) 07:46:16 435.465 / 435.565
AIST 1 28 May 07:33:01 07:36:56 30° 58° (ENE) 07:40:49
HORYU 2 28 May 08:03:37 08:07:48 42° 302° (WNW) 08:11:59 437.375
GONETS M04 28 May 08:03:39 08:12:00 45° 53° (NE) 08:20:17
DOVE 4 28 May 08:04:49 08:08:29 23° 87° (E) 08:11:58 437.250
UNISAT 6 28 May 08:05:47 08:07:41 13° 36° (NE) 08:09:35 437.425
YUBILEINY 28 May 08:06:52 08:08:57 11° 311° (NW) 08:11:03 435.215
SO-50 28 May 08:09:16 08:14:05 69° 213° (SSW) 08:18:46 436.795
JAS-2 28 May 08:10:11 08:15:23 20° 359° (N) 08:20:28 435.910
AO-7 28 May 08:11:38 08:19:33 49° 318° (NW) 08:27:29 29.400- 29.500
NOAA 15 28 May 08:11:57 08:17:19 74° 108° (ESE) 08:22:37 137.62
TIGRISAT 28 May 08:12:53 08:14:56 13° 37° (NE) 08:16:59 435.000
CANX-2 28 May 08:18:23 08:20:33 14° 81° (E) 08:22:43 2200.000
Cubesat XI-IV 28 May 08:19:00 08:24:21 65° 105° (ESE) 08:29:42 437.490
SEEDS 28 May 08:21:07 08:21:36 10° 77° (ENE) 08:22:05 437.485
NOAA 18 28 May 08:22:37 08:28:08 73° 108° (ESE) 08:33:37 137.9125
Oscar 19 28 May 08:24:13 08:24:26 10° 354° (N) 08:24:40 437.125/150
PRISM 28 May 08:26:46 08:30:57 76° 68° (ENE) 08:35:10 437.425
CINEMA 3 28 May 08:31:11 08:33:40 15° 83° (E) 08:36:08 145.822/145.860
AO-85 28 May 08:33:11 08:38:27 55° 141° (SE) 08:43:28 145.980
BRITE-PL 28 May 08:35:16 08:40:43 85° 289° (WNW) 08:45:44 437.365/2234.400
STRAND 1 28 May 08:40:34 08:45:12 34° 266° (W) 08:49:54 437.568
Cosmos 2504 28 May 08:41:18 08:45:55 16° 298° (WNW) 08:50:40 435.465 / 435.565
CUTE 1.7 + AOD 2 28 May 08:44:57 08:48:01 19° 86° (E) 08:51:06 437.475
ANTELSAT 28 May 08:45:23 08:48:25 19° 45° (NE) 08:51:28 437.575/2403.000
LilacSat-2 28 May 08:50:38 08:54:24 66° 292° (WNW) 08:58:10 437.200
Gurwin Techsat 1B 28 May 08:51:26 08:52:49 11° 350° (N) 08:54:11 435.225
HO-68 28 May 08:55:09 09:01:24 31° 89° (E) 09:07:37 435.675
GOMX 1 28 May 08:56:42 09:01:41 83° 105° (ESE) 09:06:17 467.674
COMPASS 1 28 May 09:04:14 09:07:00 17° 84° (E) 09:09:46 437.405
CUTE-I 28 May 09:05:12 09:10:34 73° 295° (WNW) 09:15:55 437.470
AAUSAT CUBESAT 2 28 May 09:06:16 09:08:43 15° 83° (E) 09:11:12 437.432
ITAMSAT 1 28 May 09:06:17 09:08:10 12° 343° (NNW) 09:10:04 435.822/435.867
AIST 1 28 May 09:10:33 09:14:54 62° 261° (W) 09:19:12
CUBEBUG 2 28 May 09:16:05 09:18:27 15° 83° (E) 09:20:48 437.445
Cosmos 2491 28 May 09:17:10 09:24:12 25° 334° (NNW) 09:31:14 435.465 / 435.565
POPSAT HIP 1 28 May 09:17:38 09:19:36 13° 37° (NE) 09:21:33 437.405
QB50P1 28 May 09:17:55 09:19:54 13° 37° (NE) 09:21:54 145.935-145.965
QB50P2 28 May 09:20:16 09:22:25 14° 38° (NE) 09:24:34 145.880/145.840
POLYITAN 1 28 May 09:22:42 09:24:52 14° 38° (NE) 09:27:02 437.675
Cosmos 2499 28 May 09:25:29 09:33:46 64° 65° (ENE) 09:42:31 435.465 / 435.565
NANOSAT C BR1 28 May 09:35:16 09:37:44 15° 41° (NE) 09:40:13 145.865
UNISAT 6 28 May 09:39:28 09:43:26 37° 58° (ENE) 09:47:24 437.425
HORYU 2 28 May 09:41:01 09:43:27 15° 324° (NW) 09:45:54 437.375
DOVE 4 28 May 09:42:12 09:46:50 81° 291° (WNW) 09:51:10 437.250
UWE-3 28 May 09:42:51 09:45:43 18° 86° (E) 09:48:36 435.000/436.395/437.385
FUNcube-1 28 May 09:45:19 09:47:31 14° 82° (E) 09:49:43 145.935
TIGRISAT 28 May 09:46:42 09:50:43 39° 59° (ENE) 09:54:43 435.000
SO-50 28 May 09:50:07 09:53:59 25° 235° (SW) 09:57:46 436.795
NOAA 15 28 May 09:52:02 09:56:50 35° 309° (NW) 10:01:38 137.62
JAS-2 28 May 09:52:12 09:58:10 25° 24° (NNE) 10:04:04 435.910
CANX-2 28 May 09:53:05 09:57:20 60° 103° (ESE) 10:01:36 2200.000
SEEDS 28 May 09:54:19 09:58:26 45° 99° (E) 10:02:32 437.485
Cubesat XI-IV 28 May 09:59:20 10:04:18 40° 307° (NW) 10:09:15 437.490
Oscar 19 28 May 09:59:58 10:01:47 12° 18° (NNE) 10:03:36 437.125/150
GONETS M04 28 May 10:00:54 10:09:39 77° 261° (W) 10:18:19
PRISM 28 May 10:03:21 10:06:44 23° 269° (W) 10:10:09 437.425
NOAA 18 28 May 10:03:35 10:08:34 37° 310° (NW) 10:13:34 137.9125
AO-7 28 May 10:03:58 10:10:52 30° 344° (NNW) 10:17:47 29.400- 29.500
CINEMA 3 28 May 10:07:26 10:11:42 71° 104° (ESE) 10:15:51 145.822/145.860
AUBIESAT-1 28 May 10:09:15 10:12:29 39° 108° (ESE) 10:15:37 437.475
DUCHIFAT 1 28 May 10:12:20 10:15:37 22° 49° (NE) 10:18:54 145.980
CUSAT 1 28 May 10:13:19 10:16:35 13° 61° (ENE) 10:19:56 437.405
AO-85 28 May 10:13:37 10:18:58 78° 342° (NNW) 10:23:59 145.980
BRITE-PL 28 May 10:14:05 10:18:39 28° 313° (NW) 10:22:56 437.365/2234.400
O/OREOS (USA 219) 28 May 10:15:46 10:19:21 23° 108° (ESE) 10:22:57 437.305
M-CUBED/EXP-1 PRIME 28 May 10:16:37 10:19:57 53° 111° (ESE) 10:23:11 437.505
CUTE 1.7 + AOD 2 28 May 10:20:13 10:24:32 85° 107° (ESE) 10:28:51 437.475
ANTELSAT 28 May 10:20:17 10:24:34 68° 67° (ENE) 10:28:50 437.575/2403.000
LilacSat-2 28 May 10:25:43 10:28:09 16° 313° (NW) 10:30:34 437.200
Oscar 11 28 May 10:27:09 10:31:02 30° 94° (E) 10:34:54 145.826/435.025
BUGSAT 1 28 May 10:27:45 10:30:41 19° 46° (NE) 10:33:36 437.445
Gurwin Techsat 1B 28 May 10:28:56 10:30:46 12° 15° (NNE) 10:32:36 435.225
GOMX 1 28 May 10:35:08 10:39:22 28° 310° (NW) 10:43:20 467.674
COMPASS 1 28 May 10:39:03 10:43:18 76° 105° (ESE) 10:47:33 437.405
AAUSAT CUBESAT 2 28 May 10:40:49 10:45:02 68° 105° (ESE) 10:49:14 437.432
HO-68 28 May 10:42:53 10:50:07 86° 115° (ESE) 10:57:20 435.675
ZACube-1 28 May 10:42:53 10:46:45 35° 96° (E) 10:50:38 437.345
ITAMSAT 1 28 May 10:44:41 10:45:41 11° 8° (N) 10:46:43 435.822/435.867
HUMSAT D 28 May 10:45:01 10:47:30 15° 84° (E) 10:49:58 437.325/437.525
CUTE-I 28 May 10:45:40 10:49:59 26° 317° (NW) 10:54:19 437.470
PCSat 28 May 10:47:02 10:51:33 27° 118° (ESE) 10:56:04 145.827
AIST 1 28 May 10:49:25 10:51:41 14° 283° (WNW) 10:53:57
POPSAT HIP 1 28 May 10:50:31 10:54:27 38° 59° (ENE) 10:58:23 437.405
QB50P1 28 May 10:50:49 10:54:46 39° 59° (ENE) 10:58:42 145.935-145.965
CUBEBUG 2 28 May 10:51:45 10:55:56 68° 105° (ESE) 11:00:05 437.445
QB50P2 28 May 10:53:20 10:57:20 42° 60° (ENE) 11:01:21 145.880/145.840
POLYITAN 1 28 May 10:55:48 10:59:48 42° 60° (ENE) 11:03:48 437.675
DELFI C3 28 May 11:04:29 11:08:11 33° 95° (E) 11:11:52 145.870
NANOSAT C BR1 28 May 11:08:37 11:12:42 49° 62° (ENE) 11:16:47 145.865
UNISAT 6 28 May 11:15:56 11:20:09 50° 259° (W) 11:24:20 437.425
Cosmos 2491 28 May 11:18:35 11:24:56 21° 7° (N) 11:31:17 435.465 / 435.565
UWE-3 28 May 11:18:41 11:22:52 83° 108° (ESE) 11:27:05 435.000/436.395/437.385
Cosmos 2499 28 May 11:18:53 11:26:55 53° 270° (W) 11:35:21 435.465 / 435.565
DOVE 4 28 May 11:20:23 11:23:59 23° 313° (NW) 11:27:25 437.250
FUNcube-1 28 May 11:20:29 11:24:38 63° 104° (ESE) 11:28:49 145.935
TIGRISAT 28 May 11:23:17 11:27:27 46° 260° (W) 11:31:35 435.000
CANX-2 28 May 11:29:14 11:33:03 32° 304° (WNW) 11:36:52 2200.000
SEEDS 28 May 11:30:10 11:34:10 40° 300° (WNW) 11:38:09 437.485
NOAA 15 28 May 11:32:18 11:35:24 16° 333° (NNW) 11:38:30 137.62
JAS-2 28 May 11:34:22 11:41:37 45° 48° (NE) 11:48:56 435.910
Oscar 19 28 May 11:35:32 11:39:34 23° 42° (NE) 11:43:36 437.125/150
Cubesat XI-IV 28 May 11:39:55 11:43:15 17° 330° (NNW) 11:46:35 437.490
AUBIESAT-1 28 May 11:43:54 11:47:02 35° 310° (NW) 11:50:06 437.475
NOAA 18 28 May 11:44:38 11:48:02 17° 333° (NNW) 11:51:26 137.9125
CINEMA 3 28 May 11:44:58 11:48:35 27° 307° (NW) 11:52:08 145.822/145.860
DUCHIFAT 1 28 May 11:46:39 11:50:53 86° 75° (ENE) 11:55:07 145.980
CUSAT 1 28 May 11:50:03 11:56:32 37° 84° (E) 12:03:41 437.405
M-CUBED/EXP-1 PRIME 28 May 11:51:28 11:54:27 28° 313° (NW) 11:57:18 437.505
DANDE 28 May 11:53:02 11:58:12 24° 74° (ENE) 12:04:08 436.750
BRITE-PL 28 May 11:53:10 11:55:37 13° 336° (NNW) 11:58:00 437.365/2234.400
O/OREOS (USA 219) 28 May 11:53:43 11:58:17 88° 130° (SE) 12:02:51 437.305
AO-85 28 May 11:54:37 11:59:52 69° 7° (N) 12:04:41 145.980
AO-7 28 May 11:54:51 12:01:40 29° 11° (NNE) 12:08:29 29.400- 29.500
CUTE 1.7 + AOD 2 28 May 11:56:32 12:00:00 25° 309° (NW) 12:03:30 437.475
ANTELSAT 28 May 11:58:03 12:01:42 26° 268° (W) 12:05:21 437.575/2403.000
GONETS M04 28 May 11:58:13 12:05:18 29° 287° (WNW) 12:12:21
BUGSAT 1 28 May 12:01:20 12:05:30 69° 68° (ENE) 12:09:38 437.445
Oscar 11 28 May 12:03:11 12:07:28 60° 295° (WNW) 12:11:45 145.826/435.025
Gurwin Techsat 1B 28 May 12:05:06 12:09:04 22° 39° (NE) 12:13:04 435.225
ESTCUBE 1 28 May 12:13:40 12:17:20 23° 89° (E) 12:20:57 437.505/2401.250
GOMX 1 28 May 12:14:07 12:16:04 12° 334° (NNW) 12:17:57 467.674
COMPASS 1 28 May 12:15:02 12:18:34 26° 307° (NW) 12:22:06 437.405
AAUSAT CUBESAT 2 28 May 12:16:41 12:20:17 28° 306° (NW) 12:23:55 437.432
ZACube-1 28 May 12:19:12 12:23:14 48° 297° (WNW) 12:27:17 437.345
HUMSAT D 28 May 12:19:45 12:23:54 71° 105° (ESE) 12:28:04 437.325/437.525
ITAMSAT 1 28 May 12:20:06 12:23:24 17° 32° (NNE) 12:26:43 435.822/435.867
CUBEBUG 1 28 May 12:23:03 12:26:22 20° 87° (E) 12:29:39 437.445
DX 1 28 May 12:24:10 12:27:09 18° 86° (E) 12:30:06 434.975-435.025
POPSAT HIP 1 28 May 12:26:09 12:30:14 47° 260° (W) 12:34:21 437.405
CUTE-I 28 May 12:26:12 12:28:32 13° 341° (NNW) 12:30:52 437.470
QB50P1 28 May 12:26:27 12:30:33 46° 260° (W) 12:34:40 145.935-145.965
CUBEBUG 2 28 May 12:28:47 12:32:20 28° 306° (NW) 12:35:54 437.445
PCSat 28 May 12:28:54 12:34:20 76° 141° (SE) 12:39:48 145.827
QB50P2 28 May 12:29:09 12:33:13 43° 261° (W) 12:37:17 145.880/145.840
HO-68 28 May 12:30:51 12:37:26 41° 317° (NW) 12:43:59 435.675
POLYITAN 1 28 May 12:31:38 12:35:41 42° 261° (W) 12:39:44 437.675
VELOX 1 28 May 12:32:12 12:35:45 23° 89° (E) 12:39:16 145.980
BEESAT 2 28 May 12:35:21 12:37:08 13° 118° (ESE) 12:38:54 435.950
DELFI C3 28 May 12:39:19 12:43:15 49° 297° (WNW) 12:47:10 145.870
NANOSAT C BR1 28 May 12:44:42 12:48:37 36° 264° (W) 12:52:32 145.865
SPROUT 28 May 12:46:23 12:49:04 16° 84° (E) 12:51:43 437.525
UWE-3 28 May 12:55:38 12:59:00 24° 309° (NW) 13:02:22 435.000/436.395/437.385
UNISAT 6 28 May 12:56:34 12:57:56 11° 281° (W) 12:59:17 437.425
FUNcube-1 28 May 12:57:05 13:00:42 30° 305° (NW) 13:04:22 145.935
50 SAT 28 May 13:04:15 13:07:46 37° 98° (E) 13:11:17 437.505
TIGRISAT 28 May 13:04:36 13:05:16 10° 282° (WNW) 13:05:56 435.000
BEESAT 3 28 May 13:06:20 13:09:40 26° 129° (SE) 13:13:00 437.485
CANX-2 28 May 13:06:26 13:07:51 11° 326° (NW) 13:09:15 2200.000
SEEDS 28 May 13:06:55 13:08:57 13° 322° (NW) 13:10:59 437.485
AISAT 28 May 13:08:11 13:12:24 40° 98° (E) 13:16:34 437.250
UKube-1 28 May 13:11:19 13:15:13 31° 95° (E) 13:19:05 .
NOAA 15 28 May 13:12:06 13:13:19 11° 357° (N) 13:14:33 137.62
Cosmos 2499 28 May 13:12:49 13:18:19 20° 295° (WNW) 13:24:00 435.465 / 435.565
Oscar 19 28 May 13:13:02 13:18:12 66° 64° (ENE) 13:23:23 437.125/150
Cosmos 2491 28 May 13:17:35 13:25:18 32° 39° (NE) 13:32:56 435.465 / 435.565
JAS-2 28 May 13:18:28 13:26:12 82° 251° (WSW) 13:34:10 435.910
AUBIESAT-1 28 May 13:19:26 13:20:47 12° 332° (NNW) 13:22:06 437.475
Cubesat XI-IV 28 May 13:20:11 13:21:30 11° 354° (N) 13:22:48 437.490
DUCHIFAT 1 28 May 13:23:58 13:27:10 21° 272° (W) 13:30:22 145.980
CINEMA 3 28 May 13:24:18 13:24:33 10° 330° (NNW) 13:24:47 145.822/145.860
NOAA 18 28 May 13:24:53 13:26:51 12° 358° (N) 13:28:50 137.9125
M-CUBED/EXP-1 PRIME 28 May 13:27:26 13:28:07 10° 336° (NNW) 13:28:47 437.505
CUSAT 1 28 May 13:30:46 13:38:03 87° 290° (WNW) 13:46:14 437.405
DANDE 28 May 13:33:16 13:39:42 68° 100° (E) 13:47:42 436.750
O/OREOS (USA 219) 28 May 13:33:58 13:38:11 35° 333° (NNW) 13:42:22 437.305
AO-85 28 May 13:35:27 13:40:34 76° 210° (SSW) 13:45:13 145.980
BUGSAT 1 28 May 13:37:47 13:41:17 25° 268° (W) 13:44:46 437.445
Oscar 11 28 May 13:40:00 13:42:56 18° 316° (NW) 13:45:51 145.826/435.025
Gurwin Techsat 1B 28 May 13:43:01 13:48:14 59° 62° (ENE) 13:53:28 435.225
AO-7 28 May 13:45:07 13:52:50 45° 38° (NE) 14:00:36 29.400- 29.500
ESTCUBE 1 28 May 13:50:07 13:54:44 85° 288° (WNW) 13:59:17 437.505/2401.250
AAUSAT CUBESAT 2 28 May 13:54:05 13:54:39 10° 328° (NNW) 13:55:13 437.432
HUMSAT D 28 May 13:55:47 13:59:17 27° 306° (NW) 14:02:49 437.325/437.525
ZACube-1 28 May 13:56:24 13:58:45 15° 319° (NW) 14:01:07 437.345
ITAMSAT 1 28 May 13:56:58 14:01:49 42° 55° (NE) 14:06:42 435.822/435.867
CUBEBUG 1 28 May 13:58:52 14:03:19 89° 108° (ESE) 14:07:42 437.445
DX 1 28 May 13:59:41 14:04:06 77° 107° (ESE) 14:08:28 434.975-435.025
CUTE-I 28 May 14:05:20 14:06:37 11° 6° (N) 14:07:54 437.470
POPSAT HIP 1 28 May 14:06:12 14:07:07 11° 281° (WNW) 14:08:01 437.405
QB50P1 28 May 14:06:40 14:07:26 10° 282° (WNW) 14:08:12 145.935-145.965
VELOX 1 28 May 14:08:19 14:12:48 84° 290° (WNW) 14:17:14 145.980
BEESAT 2 28 May 14:10:19 14:14:08 44° 139° (SE) 14:17:57 435.950
PCSat 28 May 14:12:39 14:18:02 59° 345° (NNW) 14:23:26 145.827
DELFI C3 28 May 14:15:06 14:17:21 15° 318° (NW) 14:19:37 145.870
SWISSCUBE 28 May 14:15:56 14:17:43 12° 78° (ENE) 14:19:30 437.505
HO-68 28 May 14:18:19 14:23:38 23° 342° (NNW) 14:28:59 435.675
SPROUT 28 May 14:21:31 14:25:49 72° 106° (ESE) 14:30:04 437.525
ITUPSAT 1 28 May 14:22:31 14:24:25 12° 78° (ENE) 14:26:20 437.325
HORYU 2 28 May 14:25:42 14:27:55 14° 34° (NE) 14:30:08 437.375
FUNcube-1 28 May 14:35:09 14:35:52 10° 327° (NNW) 14:36:36 145.935
50 SAT 28 May 14:38:04 14:41:34 39° 299° (WNW) 14:45:04 437.505
TISAT 1 28 May 14:42:08 14:46:10 42° 99° (E) 14:50:09 437.305
BEESAT 3 28 May 14:43:00 14:46:58 79° 151° (SSE) 14:50:58 437.485
BEESAT 28 May 14:44:39 14:47:48 17° 84° (E) 14:50:57 436.000
AISAT 28 May 14:44:43 14:49:01 48° 299° (WNW) 14:53:16 437.250
UKube-1 28 May 14:47:17 14:51:34 59° 296° (WNW) 14:55:50 .
NOAA 15 28 May 14:48:37 14:51:10 14° 21° (NNE) 14:53:43 137.62
AIST 2 28 May 14:51:21 14:54:15 18° 122° (ESE) 14:57:08 435.215
Oscar 19 28 May 14:53:11 14:57:55 34° 266° (W) 15:02:41 437.125/150
Cubesat XI-IV 28 May 14:57:17 14:59:37 13° 19° (NNE) 15:01:56 437.490
NOAA 18 28 May 15:02:34 15:05:38 15° 22° (NNE) 15:08:43 137.9125
JAS-2 28 May 15:05:35 15:12:18 32° 276° (W) 15:19:11 435.910
BRITE-PL 28 May 15:05:55 15:08:28 13° 24° (NNE) 15:11:00 437.365/2234.400
CUSAT 1 28 May 15:14:17 15:21:14 39° 314° (NW) 15:28:45 437.405
O/OREOS (USA 219) 28 May 15:14:57 15:18:43 25° 358° (N) 15:22:28 437.305
Cosmos 2491 28 May 15:15:06 15:23:56 70° 67° (ENE) 15:32:40 435.465 / 435.565
AO-85 28 May 15:16:19 15:20:30 28° 234° (SW) 15:24:23 145.980
DANDE 28 May 15:16:31 15:23:04 50° 306° (NW) 15:30:58 436.750
Gurwin Techsat 1B 28 May 15:23:28 15:28:28 40° 264° (W) 15:33:30 435.225
GOMX 1 28 May 15:27:01 15:28:14 11° 22° (NNE) 15:29:27 467.674
ESTCUBE 1 28 May 15:27:24 15:31:05 24° 312° (NW) 15:34:45 437.505/2401.250
YUBILEINY 28 May 15:30:45 15:37:37 27° 72° (ENE) 15:44:30 435.215
CUBEBUG 1 28 May 15:35:35 15:39:11 25° 311° (NW) 15:42:45 437.445
ITAMSAT 1 28 May 15:36:07 15:41:14 58° 257° (WSW) 15:46:24 435.822/435.867
DX 1 28 May 15:36:15 15:39:59 28° 309° (NW) 15:43:42 434.975-435.025
AO-7 28 May 15:36:47 15:45:08 89° 242° (WSW) 15:53:34 29.400- 29.500
CUTE-I 28 May 15:41:32 15:44:50 17° 30° (NNE) 15:48:09 437.470
VELOX 1 28 May 15:45:15 15:48:48 24° 313° (NW) 15:52:19 145.980
BEESAT 2 28 May 15:47:51 15:51:53 77° 341° (NNW) 15:55:55 435.950
SWISSCUBE 28 May 15:52:05 15:56:45 47° 100° (E) 16:01:24 437.505
PCSat 28 May 15:56:45 16:02:08 55° 10° (N) 16:07:30 145.827
SPROUT 28 May 15:57:51 16:01:30 28° 307° (NW) 16:05:09 437.525
Cosmos 2504 28 May 15:58:19 16:01:22 13° 56° (NE) 16:04:29 435.465 / 435.565
ITUPSAT 1 28 May 15:58:48 16:03:29 48° 100° (E) 16:08:09 437.325
HORYU 2 28 May 15:59:24 16:03:30 38° 57° (ENE) 16:07:36 437.375
HO-68 28 May 16:04:18 16:09:20 21° 8° (N) 16:14:22 435.675
DOVE 4 28 May 16:11:16 16:11:42 10° 25° (NNE) 16:12:09 437.250
50 SAT 28 May 16:13:11 16:14:28 12° 320° (NW) 16:15:46 437.505
TISAT 1 28 May 16:17:55 16:21:53 41° 300° (WNW) 16:25:49 437.305
BEESAT 3 28 May 16:20:54 16:24:51 61° 354° (N) 16:28:49 437.485
BEESAT 28 May 16:21:42 16:26:30 68° 106° (ESE) 16:31:17 436.000
AISAT 28 May 16:21:57 16:24:40 16° 321° (NW) 16:27:21 437.250
UKube-1 28 May 16:23:59 16:26:56 18° 318° (NW) 16:29:53 .
NOAA 15 28 May 16:25:04 16:29:31 28° 45° (NE) 16:33:59 137.62
AIST 2 28 May 16:28:00 16:32:05 59° 144° (SE) 16:36:11 435.215
Cubesat XI-IV 28 May 16:33:53 16:38:10 26° 43° (NE) 16:42:29 437.490
LilacSat-2 28 May 16:36:42 16:38:47 14° 44° (NE) 16:40:52 437.200
NOAA 18 28 May 16:40:12 16:44:56 32° 46° (NE) 16:49:43 137.9125
BRITE-PL 28 May 16:40:44 16:45:28 28° 47° (NE) 16:50:05 437.365/2234.400
O/OREOS (USA 219) 28 May 16:55:13 16:59:19 32° 23° (NNE) 17:03:23 437.305
JAS-2 28 May 16:59:03 17:00:09 10° 302° (WNW) 17:01:15 435.910
CUSAT 1 28 May 16:59:47 17:05:46 23° 340° (NNW) 17:11:55 437.405
KKS-1 28 May 17:00:15 17:04:17 32° 95° (E) 17:08:17 437.445
GOMX 1 28 May 17:00:42 17:04:48 23° 45° (NE) 17:08:46 467.674
DANDE 28 May 17:02:03 17:08:00 26° 333° (NNW) 17:14:42 436.750
ESTCUBE 1 28 May 17:06:00 17:06:33 10° 335° (NNW) 17:07:07 437.505/2401.250
Gurwin Techsat 1B 28 May 17:08:48 17:09:59 11° 287° (WNW) 17:11:10 435.225
Cosmos 2491 28 May 17:12:19 17:20:34 48° 274° (W) 17:28:45 435.465 / 435.565
DX 1 28 May 17:13:49 17:15:00 11° 331° (NNW) 17:16:11 434.975-435.025
CUBESAT XI-V 28 May 17:16:51 17:17:19 10° 75° (ENE) 17:17:47 437.345
ITAMSAT 1 28 May 17:18:47 17:21:53 16° 279° (W) 17:24:58 435.822/435.867
CUTE-I 28 May 17:18:50 17:23:45 39° 53° (NE) 17:28:42 437.470
MOZHAYETS 4 28 May 17:23:13 17:27:37 41° 97° (E) 17:32:01
RS-15 28 May 17:23:31 17:32:41 29° 103° (ESE) 17:42:08 29.354- 29.394
YUBILEINY 28 May 17:24:29 17:33:07 73° 98° (E) 17:41:49 435.215
BEESAT 2 28 May 17:26:03 17:30:03 61° 5° (N) 17:34:01 435.950
SWISSCUBE 28 May 17:30:01 17:34:37 45° 302° (WNW) 17:39:11 437.505
AO-7 28 May 17:31:33 17:39:00 35° 268° (W) 17:46:32 29.400- 29.500
STARS 28 May 17:33:01 17:37:04 35° 96° (E) 17:41:05 437.465
SPROUT 28 May 17:35:31 17:36:18 10° 329° (NNW) 17:37:06 437.525
HORYU 2 28 May 17:35:41 17:40:01 52° 258° (WSW) 17:44:22 437.375
ITUPSAT 1 28 May 17:36:48 17:41:22 45° 302° (WNW) 17:45:57 437.325
PCSat 28 May 17:40:28 17:45:58 89° 214° (SSW) 17:51:25 145.827
DOVE 4 28 May 17:44:06 17:48:01 24° 47° (NE) 17:51:47 437.250
Cosmos 2504 28 May 17:45:41 17:52:24 39° 83° (E) 17:59:33 435.465 / 435.565
CANX-2 28 May 17:48:14 17:49:59 12° 36° (NE) 17:51:44 2200.000
HO-68 28 May 17:49:11 17:55:17 32° 34° (NE) 18:01:23 435.675
SEEDS 28 May 17:49:58 17:50:39 10° 32° (NNE) 17:51:19 437.485
TISAT 1 28 May 17:54:32 17:56:39 14° 322° (NW) 17:58:46 437.305
AUBIESAT-1 28 May 17:57:48 18:00:30 19° 40° (NE) 18:03:07 437.475
BEESAT 3 28 May 17:58:53 18:02:52 74° 17° (NNE) 18:06:51 437.485
BEESAT 28 May 17:59:47 18:04:05 34° 307° (NW) 18:08:23 436.000
NOAA 15 28 May 18:03:27 18:08:47 82° 67° (ENE) 18:14:09 137.62
M-CUBED/EXP-1 PRIME 28 May 18:05:05 18:08:07 23° 43° (NE) 18:11:01 437.505
AIST 2 28 May 18:06:28 18:10:37 68° 347° (NNW) 18:14:47 435.215
CINEMA 3 28 May 18:07:54 18:10:35 16° 41° (NE) 18:13:13 145.822/145.860
LilacSat-2 28 May 18:08:43 18:12:25 54° 66° (ENE) 18:16:08 437.200
Cubesat XI-IV 28 May 18:12:19 18:17:37 73° 65° (ENE) 18:22:58 437.490
CUTE 1.7 + AOD 2 28 May 18:14:17 18:16:45 15° 41° (NE) 18:19:14 437.475
BRITE-PL 28 May 18:17:38 18:23:21 78° 69° (ENE) 18:28:58 437.365/2234.400
NOAA 18 28 May 18:19:43 18:25:12 88° 240° (WSW) 18:30:43 137.9125
COMPASS 1 28 May 18:32:07 18:34:15 14° 39° (NE) 18:36:24 437.405
AAUSAT CUBESAT 2 28 May 18:33:51 18:35:43 13° 38° (NE) 18:37:35 437.432
O/OREOS (USA 219) 28 May 18:34:47 18:39:20 80° 47° (NE) 18:43:50 437.305
KKS-1 28 May 18:36:46 18:41:09 58° 297° (WNW) 18:45:31 437.445
GOMX 1 28 May 18:36:50 18:42:13 66° 66° (ENE) 18:47:22 467.674
CUSAT 1 28 May 18:45:13 18:50:59 21° 8° (N) 18:56:39 437.405
DANDE 28 May 18:48:17 18:53:53 21° 1° (N) 18:59:52 436.750
CUBEBUG 2 28 May 18:50:09 18:52:21 14° 40° (NE) 18:54:33 437.445
CUBESAT XI-V 28 May 18:51:32 18:56:03 41° 97° (E) 19:00:31 437.345
CUTE-I 28 May 18:58:23 19:03:40 65° 255° (WSW) 19:09:01 437.470
MOZHAYETS 4 28 May 19:00:28 19:04:56 48° 299° (WNW) 19:09:23
STRAND 1 28 May 19:02:15 19:03:07 10° 74° (ENE) 19:03:59 437.568
BEESAT 2 28 May 19:04:04 19:08:06 83° 204° (SSW) 19:12:07 435.950
SWISSCUBE 28 May 19:08:29 19:11:30 17° 324° (NW) 19:14:30 437.505
STARS 28 May 19:09:22 19:13:39 53° 298° (WNW) 19:17:55 437.465
Cosmos 2491 28 May 19:10:06 19:15:13 17° 300° (WNW) 19:20:18 435.465 / 435.565
ITUPSAT 1 28 May 19:15:17 19:18:17 17° 324° (NW) 19:21:17 437.325
UWE-3 28 May 19:15:49 19:18:18 16° 42° (NE) 19:20:48 435.000/436.395/437.385
HORYU 2 28 May 19:15:50 19:17:38 12° 280° (W) 19:19:27 437.375
FUNcube-1 28 May 19:17:22 19:19:15 13° 38° (NE) 19:21:08 145.935
DOVE 4 28 May 19:20:06 19:25:12 75° 68° (ENE) 19:30:01 437.250
CANX-2 28 May 19:20:58 19:24:50 36° 58° (ENE) 19:28:45 2200.000
SEEDS 28 May 19:21:36 19:25:13 29° 54° (NE) 19:28:52 437.485
YUBILEINY 28 May 19:22:15 19:30:36 48° 305° (NW) 19:39:01 435.215
PCSat 28 May 19:24:06 19:28:58 34° 238° (WSW) 19:33:49 145.827
AUBIESAT-1 28 May 19:30:47 19:34:38 72° 59° (ENE) 19:38:13 437.475
RS-15 28 May 19:31:30 19:42:52 64° 132° (SE) 19:54:48 29.354- 29.394
AO-7 28 May 19:32:47 19:34:50 11° 295° (WNW) 19:36:54 29.400- 29.500
GONETS M04 28 May 19:33:20 19:34:08 10° 47° (NE) 19:34:56
HO-68 28 May 19:35:03 19:42:08 68° 58° (ENE) 19:49:16 435.675
BEESAT 3 28 May 19:36:41 19:40:31 47° 220° (SW) 19:44:19 437.485
Cosmos 2504 28 May 19:37:51 19:45:17 77° 289° (WNW) 19:53:20 435.465 / 435.565
BEESAT 28 May 19:38:23 19:40:44 14° 330° (NNW) 19:43:06 436.000
M-CUBED/EXP-1 PRIME 28 May 19:38:30 19:42:26 87° 243° (WSW) 19:46:05 437.505
CINEMA 3 28 May 19:42:34 19:46:58 49° 63° (ENE) 19:51:13 145.822/145.860
LilacSat-2 28 May 19:43:41 19:47:00 28° 267° (W) 19:50:18 437.200
NOAA 15 28 May 19:44:36 19:49:10 28° 269° (W) 19:53:46 137.62
AIST 2 28 May 19:45:18 19:49:27 66° 10° (N) 19:53:36 435.215
CUTE 1.7 + AOD 2 28 May 19:47:43 19:51:48 49° 63° (ENE) 19:55:56 437.475
Cubesat XI-IV 28 May 19:53:27 19:58:11 32° 267° (W) 20:02:59 437.490
BRITE-PL 28 May 19:57:15 20:02:20 32° 270° (W) 20:07:21 437.365/2234.400
Oscar 11 28 May 19:57:27 20:00:50 23° 49° (NE) 20:04:15 145.826/435.025
NOAA 18 28 May 20:02:09 20:06:38 25° 271° (W) 20:11:09 137.9125
COMPASS 1 28 May 20:04:59 20:08:56 43° 61° (ENE) 20:12:56 437.405
AAUSAT CUBESAT 2 28 May 20:06:24 20:10:16 39° 60° (ENE) 20:14:10 437.432
HUMSAT D 28 May 20:13:26 20:15:19 13° 39° (NE) 20:17:14 437.325/437.525
ZACube-1 28 May 20:13:57 20:17:24 25° 52° (NE) 20:20:49 437.345
KKS-1 28 May 20:13:58 20:17:01 18° 318° (NW) 20:20:03 437.445
O/OREOS (USA 219) 28 May 20:14:33 20:18:23 28° 249° (WSW) 20:22:10 437.305
GOMX 1 28 May 20:15:39 20:20:38 36° 267° (W) 20:25:26 467.674
CUBEBUG 2 28 May 20:24:05 20:28:09 44° 62° (ENE) 20:32:10 437.445
DELFI C3 28 May 20:27:13 20:30:15 21° 49° (NE) 20:33:17 145.870
CUSAT 1 28 May 20:28:59 20:35:55 30° 34° (NE) 20:42:25 437.405
CUBESAT XI-V 28 May 20:29:00 20:33:35 50° 299° (WNW) 20:38:08 437.345
Cosmos 2499 28 May 20:30:48 20:32:44 11° 52° (NE) 20:34:41 435.465 / 435.565
DANDE 28 May 20:33:08 20:39:47 27° 28° (NNE) 20:46:37 436.750
MOZHAYETS 4 28 May 20:38:21 20:41:15 17° 321° (NW) 20:44:08
STRAND 1 28 May 20:38:56 20:43:48 40° 97° (E) 20:48:39 437.568
CUTE-I 28 May 20:41:15 20:44:49 18° 278° (W) 20:48:23 437.470
BEESAT 2 28 May 20:42:08 20:45:37 28° 229° (SW) 20:49:04 435.950
STARS 28 May 20:46:26 20:49:16 17° 320° (NW) 20:52:04 437.465
UWE-3 28 May 20:49:57 20:54:03 52° 64° (ENE) 20:58:08 435.000/436.395/437.385
FUNcube-1 28 May 20:50:43 20:54:36 40° 60° (ENE) 20:58:30 145.935
SEEDS 28 May 20:56:30 21:00:40 68° 255° (WSW) 21:04:55 437.485
CANX-2 28 May 20:56:32 21:00:40 51° 260° (W) 21:04:50 2200.000
DOVE 4 28 May 20:58:56 21:03:21 29° 269° (W) 21:07:34 437.250
AUBIESAT-1 28 May 21:06:25 21:09:30 22° 259° (W) 21:12:26 437.475
AISAT 28 May 21:06:59 21:08:50 12° 32° (NNE) 21:10:40 437.250
UKube-1 28 May 21:09:08 21:09:57 10° 28° (NNE) 21:10:46 .
M-CUBED/EXP-1 PRIME 28 May 21:14:48 21:17:30 18° 262° (W) 21:20:05 437.505
BEESAT 3 28 May 21:15:22 21:17:25 14° 241° (WSW) 21:19:27 437.485
CINEMA 3 28 May 21:19:59 21:24:17 38° 263° (W) 21:28:26 145.822/145.860
GONETS M04 28 May 21:20:41 21:27:55 30° 74° (ENE) 21:35:07
YUBILEINY 28 May 21:23:10 21:30:02 25° 335° (NNW) 21:36:57 435.215
HO-68 28 May 21:23:29 21:30:18 46° 262° (W) 21:37:11 435.675
AIST 2 28 May 21:23:54 21:28:03 67° 214° (SSW) 21:32:11 435.215
CUTE 1.7 + AOD 2 28 May 21:23:56 21:27:50 36° 264° (W) 21:31:47 437.475
Oscar 11 28 May 21:32:12 21:36:31 86° 72° (ENE) 21:40:53 145.826/435.025
PRISM 28 May 21:32:57 21:36:35 27° 93° (E) 21:40:12 437.425
Cosmos 2504 28 May 21:33:29 21:40:08 32° 317° (NW) 21:47:14 435.465 / 435.565
COMPASS 1 28 May 21:40:39 21:44:36 40° 263° (W) 21:48:36 437.405
AAUSAT CUBESAT 2 28 May 21:41:46 21:45:46 45° 261° (W) 21:49:49 437.432
RS-15 28 May 21:43:18 21:55:11 85° 342° (NNW) 22:07:37 29.354- 29.394
HUMSAT D 28 May 21:46:14 21:50:05 41° 60° (ENE) 21:53:56 437.325/437.525
ESTCUBE 1 28 May 21:48:20 21:51:45 21° 45° (NE) 21:55:10 437.505/2401.250
ZACube-1 28 May 21:49:10 21:53:23 79° 254° (WSW) 21:57:34 437.345
AIST 1 28 May 21:50:58 21:55:07 41° 93° (E) 21:59:16
CUBEBUG 1 28 May 21:54:43 21:57:48 19° 43° (NE) 22:00:54 437.445
DX 1 28 May 21:55:27 21:58:24 18° 41° (NE) 22:01:22 434.975-435.025
DELFI C3 28 May 22:00:39 22:04:39 84° 73° (ENE) 22:08:43 145.870
CUBEBUG 2 28 May 22:00:52 22:04:54 39° 262° (W) 22:08:54 437.445
VELOX 1 28 May 22:04:51 22:08:13 21° 45° (NE) 22:11:35 145.980
CUBESAT XI-V 28 May 22:07:03 22:10:06 17° 321° (NW) 22:13:08 437.345
CUSAT 1 28 May 22:11:42 22:19:45 61° 60° (ENE) 22:26:56 437.405
SPROUT 28 May 22:16:25 22:18:50 15° 40° (NE) 22:21:16 437.525
Cosmos 2499 28 May 22:16:39 22:23:12 34° 78° (ENE) 22:30:12 435.465 / 435.565
DANDE 28 May 22:16:44 22:24:44 49° 53° (NE) 22:32:42 436.750
STRAND 1 28 May 22:18:10 22:23:14 57° 299° (WNW) 22:28:16 437.568
50 SAT 28 May 22:20:14 22:22:59 20° 51° (NE) 22:25:46 437.505
FUNcube-1 28 May 22:26:55 22:30:55 43° 261° (W) 22:34:54 145.935
UWE-3 28 May 22:26:56 22:30:46 33° 265° (W) 22:34:34 435.000/436.395/437.385
SEEDS 28 May 22:34:46 22:37:13 15° 277° (W) 22:39:42 437.485
CANX-2 28 May 22:36:09 22:37:34 11° 281° (WNW) 22:39:00 2200.000
TISAT 1 28 May 22:37:13 22:38:22 11° 32° (NNE) 22:39:31 437.305
AISAT 28 May 22:40:14 22:44:12 32° 54° (NE) 22:48:12 437.250
UKube-1 28 May 22:41:10 22:44:48 26° 50° (NE) 22:48:26 .
UNISAT 6 28 May 22:56:47 22:59:43 18° 86° (E) 23:02:38 437.425
AIST 2 28 May 23:02:48 23:06:00 22° 235° (SW) 23:09:11 435.215
TIGRISAT 28 May 23:03:47 23:06:51 19° 87° (E) 23:09:55 435.000
PRISM 28 May 23:08:05 23:12:16 64° 294° (WNW) 23:16:25 437.425
Oscar 11 28 May 23:09:57 23:13:15 21° 272° (W) 23:16:36 145.826/435.025
GONETS M04 28 May 23:14:51 23:23:38 80° 100° (E) 23:32:24
HO-68 28 May 23:16:18 23:20:04 15° 287° (WNW) 23:23:51 435.675
HUMSAT D 28 May 23:21:54 23:25:46 41° 262° (W) 23:29:41 437.325/437.525
AAUSAT CUBESAT 2 28 May 23:22:13 23:22:22 10° 283° (WNW) 23:22:31 437.432
ESTCUBE 1 28 May 23:23:27 23:27:58 71° 67° (ENE) 23:32:31 437.505/2401.250
YUBILEINY 28 May 23:24:28 23:30:44 21° 8° (N) 23:37:02 435.215
ZACube-1 28 May 23:27:39 23:30:24 17° 275° (W) 23:33:08 437.345
AIST 1 28 May 23:28:32 23:32:45 43° 296° (WNW) 23:37:01
CUBEBUG 1 28 May 23:29:02 23:33:25 61° 65° (ENE) 23:37:49 437.445
DX 1 28 May 23:29:35 23:33:53 57° 64° (ENE) 23:38:13 434.975-435.025
Cosmos 2504 28 May 23:31:18 23:36:38 19° 348° (NNW) 23:42:13 435.465 / 435.565
DELFI C3 28 May 23:37:07 23:40:05 20° 272° (W) 23:43:05 145.870
ANTELSAT 28 May 23:37:30 23:41:23 32° 95° (E) 23:45:18 437.575/2403.000
VELOX 1 28 May 23:39:39 23:44:07 72° 68° (ENE) 23:48:36 145.980
SPROUT 28 May 23:49:51 23:53:58 46° 61° (ENE) 23:58:05 437.525
50 SAT 28 May 23:52:40 23:56:20 88° 253° (WSW) 00:00:03 437.505
CUSAT 1 28 May 23:54:10 00:02:00 56° 265° (W) 00:08:55 437.405
RS-15 28 May 23:56:24 00:08:31 83° 14° (NNE) 00:20:59 29.354- 29.394
SWISSCUBE 28 May 23:56:41 23:59:36 16° 35° (NE) 00:02:31 437.505
STRAND 1 28 May 23:57:50 00:01:36 21° 321° (NW) 00:05:22 437.568
DANDE 28 May 23:59:54 00:08:16 77° 257° (WSW) 00:16:24 436.750
POPSAT HIP 1 29 May 00:00:29 00:03:06 16° 85° (E) 00:05:42 437.405
QB50P1 29 May 00:00:43 00:03:22 16° 85° (E) 00:06:01 145.935-145.965
QB50P2 29 May 00:03:24 00:06:16 17° 86° (E) 00:09:06 145.880/145.840
ITUPSAT 1 29 May 00:03:32 00:06:31 17° 35° (NE) 00:09:29 437.325
POLYITAN 1 29 May 00:05:52 00:08:44 18° 86° (E) 00:11:36 437.675
ISS 29 May 00:07:54 00:08:55 11° 166° (SSE) 00:09:57 145.825
Cosmos 2499 29 May 00:07:58 00:15:31 89° 286° (WNW) 00:23:46 435.465 / 435.565
TISAT 1 29 May 00:09:14 00:12:57 30° 54° (NE) 00:16:38 437.305
AISAT 29 May 00:16:04 00:20:31 64° 255° (WSW) 00:24:59 437.250
UKube-1 29 May 00:16:09 00:20:30 82° 251° (WSW) 00:24:53 .
JAS-2 29 May 00:17:26 00:21:38 15° 67° (ENE) 00:25:39 435.910
NANOSAT C BR1 29 May 00:18:02 00:21:13 20° 88° (E) 00:24:22 145.865
BEESAT 29 May 00:25:24 00:28:51 20° 41° (NE) 00:32:20 436.000
UNISAT 6 29 May 00:32:51 00:37:10 79° 107° (ESE) 00:41:31 437.425
TIGRISAT 29 May 00:39:55 00:44:13 85° 108° (ESE) 00:48:33 435.000
PRISM 29 May 00:44:02 00:46:57 19° 316° (NW) 00:49:52 437.425
DUCHIFAT 1 29 May 00:55:37 00:59:30 35° 96° (E) 01:03:21 145.980
KKS-1 29 May 01:00:09 01:01:32 11° 29° (NNE) 01:02:54 437.445
ESTCUBE 1 29 May 01:01:20 01:05:13 27° 268° (W) 01:09:09 437.505/2401.250
CUBEBUG 1 29 May 01:06:04 01:10:02 31° 266° (W) 01:14:01 437.445
DX 1 29 May 01:06:21 01:10:20 33° 264° (W) 01:14:22 434.975-435.025
BUGSAT 1 29 May 01:07:52 01:11:19 26° 92° (E) 01:14:44 437.445
AIST 1 29 May 01:09:15 01:11:34 14° 320° (NW) 01:13:52
GONETS M04 29 May 01:13:01 01:21:20 44° 307° (NW) 01:29:39
ANTELSAT 29 May 01:14:11 01:18:23 55° 296° (WNW) 01:22:37 437.575/2403.000
Oscar 19 29 May 01:15:27 01:16:45 11° 74° (ENE) 01:18:03 437.125/150
VELOX 1 29 May 01:17:14 01:21:02 27° 268° (W) 01:24:51 145.980
YUBILEINY 29 May 01:23:19 01:31:01 32° 40° (NE) 01:38:41 435.215
MOZHAYETS 4 29 May 01:25:22 01:27:20 13° 32° (NNE) 01:29:17
SPROUT 29 May 01:26:00 01:30:03 39° 263° (W) 01:34:07 437.525
Cosmos 2504 29 May 01:27:55 01:33:43 21° 20° (NNE) 01:39:49 435.465 / 435.565
50 SAT 29 May 01:28:18 01:30:40 16° 273° (W) 01:33:03 437.505
STARS 29 May 01:31:44 01:33:09 11° 30° (NNE) 01:34:34 437.465
SWISSCUBE 29 May 01:31:56 01:36:26 44° 58° (ENE) 01:40:59 437.505
POPSAT HIP 1 29 May 01:35:27 01:39:40 72° 105° (ESE) 01:43:52 437.405
QB50P1 29 May 01:35:41 01:39:56 74° 106° (ESE) 01:44:07 145.935-145.965
CUSAT 1 29 May 01:37:05 01:42:35 21° 289° (WNW) 01:47:42 437.405
STRAND 1 29 May 01:37:47 01:39:10 11° 345° (NNW) 01:40:34 437.568
QB50P2 29 May 01:38:32 01:42:48 80° 108° (ESE) 01:47:01 145.880/145.840
ITUPSAT 1 29 May 01:38:52 01:43:24 45° 58° (ENE) 01:47:59 437.325
POLYITAN 1 29 May 01:41:01 01:45:16 81° 108° (ESE) 01:49:28 437.675
ISS 29 May 01:42:50 01:44:23 13° 186° (S) 01:45:55 145.825
DANDE 29 May 01:43:13 01:50:13 31° 280° (W) 01:57:04 436.750
TISAT 1 29 May 01:44:12 01:48:24 64° 256° (WSW) 01:52:37 437.305
Gurwin Techsat 1B 29 May 01:50:15 01:51:12 10° 73° (ENE) 01:52:08 435.225
SO-50 29 May 01:53:12 01:57:29 31° 129° (SE) 02:01:45 436.795
NANOSAT C BR1 29 May 01:53:18 01:57:33 87° 285° (WNW) 02:01:44 145.865
UKube-1 29 May 01:54:11 01:57:15 19° 273° (W) 02:00:20 .
AISAT 29 May 01:55:16 01:57:54 15° 277° (W) 02:00:33 437.250
BEESAT 29 May 02:01:14 02:05:56 61° 63° (ENE) 02:10:40 436.000
JAS-2 29 May 02:01:33 02:08:55 44° 92° (E) 02:15:38 435.910
Cosmos 2499 29 May 02:02:49 02:09:49 37° 313° (NW) 02:17:22 435.465 / 435.565
RS-15 29 May 02:09:07 02:21:06 69° 224° (SW) 02:33:17 29.354- 29.394
UNISAT 6 29 May 02:10:00 02:13:35 26° 308° (NW) 02:17:09 437.425
TIGRISAT 29 May 02:17:05 02:20:33 25° 310° (NW) 02:24:03 435.000
DUCHIFAT 1 29 May 02:31:19 02:35:23 49° 297° (WNW) 02:39:25 145.980
KKS-1 29 May 02:33:05 02:36:55 28° 51° (NE) 02:40:44 437.445
Cosmos 2491 29 May 02:38:11 02:43:40 19° 61° (ENE) 02:49:08 435.465 / 435.565
BUGSAT 1 29 May 02:43:02 02:47:05 65° 295° (WNW) 02:51:06 437.445
ANTELSAT 29 May 02:51:39 02:54:24 17° 318° (NW) 02:57:08 437.575/2403.000
Oscar 19 29 May 02:52:38 02:57:34 41° 97° (E) 03:02:26 437.125/150
CUBESAT XI-V 29 May 02:54:38 02:56:47 13° 32° (NNE) 02:58:56 437.345
MOZHAYETS 4 29 May 02:59:17 03:03:22 33° 54° (NE) 03:07:28
STARS 29 May 03:04:33 03:08:22 29° 52° (NE) 03:12:11 437.465
SWISSCUBE 29 May 03:09:39 03:14:17 49° 259° (W) 03:18:57 437.505
POPSAT HIP 1 29 May 03:11:37 03:15:12 27° 307° (NW) 03:18:45 437.405
QB50P1 29 May 03:11:51 03:15:26 27° 307° (NW) 03:18:59 145.935-145.965
GONETS M04 29 May 03:14:11 03:20:58 24° 338° (NNW) 03:27:44
QB50P2 29 May 03:14:46 03:18:16 26° 309° (NW) 03:21:45 145.880/145.840
STRAND 1 29 May 03:15:51 03:16:23 10° 9° (N) 03:16:54 437.568
ITUPSAT 1 29 May 03:16:42 03:21:19 48° 260° (W) 03:25:59 437.325
POLYITAN 1 29 May 03:17:16 03:20:44 25° 309° (NW) 03:24:12 437.675
YUBILEINY 29 May 03:20:46 03:29:33 71° 68° (ENE) 03:38:20 435.215
Cosmos 2504 29 May 03:22:22 03:29:53 39° 50° (NE) 03:37:49 435.465 / 435.565
TISAT 1 29 May 03:22:36 03:24:55 14° 277° (W) 03:27:14 437.305
AO-7 29 May 03:26:28 03:31:34 17° 74° (ENE) 03:36:38 29.400- 29.500
Gurwin Techsat 1B 29 May 03:27:43 03:32:44 39° 96° (E) 03:37:43 435.225
DANDE 29 May 03:28:28 03:30:40 11° 304° (WNW) 03:32:52 436.750
NANOSAT C BR1 29 May 03:29:33 03:32:50 23° 311° (NW) 03:36:07 145.865
SO-50 29 May 03:32:39 03:37:34 78° 152° (SSE) 03:42:25 436.795
ITAMSAT 1 29 May 03:37:44 03:42:01 25° 89° (E) 03:46:17 435.822/435.867
BEESAT 29 May 03:39:42 03:44:02 34° 265° (W) 03:48:25 436.000
JAS-2 29 May 03:46:42 03:54:28 73° 297° (WNW) 04:01:33 435.910
Cosmos 2499 29 May 04:00:08 04:05:51 21° 343° (NNW) 04:11:52 435.465 / 435.565
DUCHIFAT 1 29 May 04:07:51 04:10:19 15° 319° (NW) 04:12:45 145.980
KKS-1 29 May 04:08:42 04:13:11 77° 252° (WSW) 04:17:41 437.445
BUGSAT 1 29 May 04:19:06 04:21:51 18° 315° (NW) 04:24:36 437.445
RS-15 29 May 04:21:33 04:31:43 33° 253° (WSW) 04:41:58 29.354- 29.394
CUBESAT XI-V 29 May 04:28:48 04:33:01 33° 54° (NE) 04:37:15 437.345
Cosmos 2491 29 May 04:30:04 04:38:26 51° 88° (E) 04:46:48 435.465 / 435.565
Oscar 19 29 May 04:32:02 04:37:07 55° 299° (WNW) 04:42:09 437.125/150
MOZHAYETS 4 29 May 04:35:47 04:40:21 65° 256° (WSW) 04:44:57
STARS 29 May 04:40:04 04:44:29 72° 254° (WSW) 04:48:54 437.465
POPSAT HIP 1 29 May 04:49:22 04:49:50 10° 330° (NNW) 04:50:16 437.405
QB50P1 29 May 04:49:44 04:50:03 10° 330° (NNW) 04:50:22 145.935-145.965
STRAND 1 29 May 04:50:32 04:53:49 17° 33° (NNE) 04:57:06 437.568
SWISSCUBE 29 May 04:51:19 04:53:17 12° 282° (WNW) 04:55:15 437.505
ITUPSAT 1 29 May 04:58:33 05:00:23 12° 282° (WNW) 05:02:14 437.325
